Time,TemperatureF,DewpointF,PressureIn,WindDirection,WindDirectionDegrees,WindSpeedMPH,WindSpeedGustMPH,Humidity,HourlyPrecipIn,Conditions,Clouds,dailyrainin,SoftwareType,DateUTC
2013-11-25 00:07:00,18.9,12.9,30.27,SSW,202,4.2,-999.0,77,-99.99,,,0.00,Acu-Link.com,2013-11-25 05:07:00,
2013-11-25 00:23:00,18.9,12.6,30.27,SW,225,5.3,-999.0,76,-99.99,,,0.00,Acu-Link.com,2013-11-25 05:23:00,
2013-11-25 00:38:00,18.9,12.3,30.27,West,270,3.7,-999.0,75,-99.99,,,0.00,Acu-Link.com,2013-11-25 05:38:00,
2013-11-25 00:53:00,18.7,11.8,30.27,WSW,247,3.2,-999.0,74,-99.99,,,0.00,Acu-Link.com,2013-11-25 05:53:00,
2013-11-25 01:08:00,18.7,11.2,30.26,SSW,202,4.2,-999.0,72,-99.99,,,0.00,Acu-Link.com,2013-11-25 06:08:00,
2013-11-25 01:23:00,18.7,10.6,30.26,South,180,3.7,-999.0,70,-99.99,,,0.00,Acu-Link.com,2013-11-25 06:23:00,
2013-11-25 01:38:00,18.9,10.4,30.25,SW,225,4.2,-999.0,69,-99.99,,,0.00,Acu-Link.com,2013-11-25 06:38:00,
2013-11-25 01:53:00,18.9,10.1,30.25,SSW,202,4.7,-999.0,68,-99.99,,,0.00,Acu-Link.com,2013-11-25 06:53:00,
2013-11-25 02:09:00,19.0,9.9,30.23,South,180,4.7,-999.0,67,-99.99,,,0.00,Acu-Link.com,2013-11-25 07:09:00,
2013-11-25 02:24:00,18.9,9.8,30.23,SSW,202,4.7,-999.0,67,-99.99,,,0.00,Acu-Link.com,2013-11-25 07:24:00,
2013-11-25 02:39:00,18.9,9.4,30.23,SW,225,3.7,-999.0,66,-99.99,,,0.00,Acu-Link.com,2013-11-25 07:39:00,
2013-11-25 02:54:00,18.9,9.4,30.24,SSW,202,5.3,-999.0,66,-99.99,,,0.00,Acu-Link.com,2013-11-25 07:54:00,
2013-11-25 03:09:00,18.9,9.4,30.22,South,180,3.7,-999.0,66,-99.99,,,0.00,Acu-Link.com,2013-11-25 08:09:00,
2013-11-25 03:24:00,18.9,9.1,30.22,SSE,157,3.7,-999.0,65,-99.99,,,0.00,Acu-Link.com,2013-11-25 08:24:00,
2013-11-25 03:39:00,18.9,8.8,30.21,South,180,4.2,-999.0,64,-99.99,,,0.00,Acu-Link.com,2013-11-25 08:39:00,
2013-11-25 03:54:00,18.9,8.4,30.20,South,180,9.4,-999.0,63,-99.99,,,0.00,Acu-Link.com,2013-11-25 08:54:00,
2013-11-25 04:09:00,18.9,8.1,30.19,South,180,5.8,-999.0,62,-99.99,,,0.00,Acu-Link.com,2013-11-25 09:09:00,
2013-11-25 04:25:00,19.0,7.8,30.18,South,180,6.3,-999.0,61,-99.99,,,0.00,Acu-Link.com,2013-11-25 09:25:00,
2013-11-25 04:40:00,19.2,7.6,30.18,SW,225,5.8,-999.0,60,-99.99,,,0.00,Acu-Link.com,2013-11-25 09:40:00,
2013-11-25 04:55:00,19.2,7.3,30.18,SSW,202,5.3,-999.0,59,-99.99,,,0.00,Acu-Link.com,2013-11-25 09:55:00,
2013-11-25 05:10:00,19.2,7.3,30.17,South,180,7.3,-999.0,59,-99.99,,,0.00,Acu-Link.com,2013-11-25 10:10:00,
2013-11-25 05:25:00,19.6,6.9,30.17,South,180,8.9,-999.0,57,-99.99,,,0.00,Acu-Link.com,2013-11-25 10:25:00,
2013-11-25 05:40:00,19.2,6.9,30.16,South,180,3.2,-999.0,58,-99.99,,,0.00,Acu-Link.com,2013-11-25 10:40:00,
2013-11-25 05:55:00,19.4,6.7,30.15,South,180,5.8,-999.0,57,-99.99,,,0.00,Acu-Link.com,2013-11-25 10:55:00,
2013-11-25 06:10:00,19.4,6.7,30.15,South,180,3.7,-999.0,57,-99.99,,,0.00,Acu-Link.com,2013-11-25 11:10:00,
2013-11-25 06:25:00,19.0,7.1,30.14,SW,225,4.7,-999.0,59,-99.99,,,0.00,Acu-Link.com,2013-11-25 11:25:00,
2013-11-25 06:41:00,19.6,7.3,30.13,South,180,6.8,-999.0,58,-99.99,,,0.00,Acu-Link.com,2013-11-25 11:41:00,
2013-11-25 06:56:00,19.6,7.3,30.12,SSW,202,6.8,-999.0,58,-99.99,,,0.00,Acu-Link.com,2013-11-25 11:56:00,
2013-11-25 07:11:00,19.8,8.2,30.12,SSW,202,5.8,-999.0,60,-99.99,,,0.00,Acu-Link.com,2013-11-25 12:11:00,
2013-11-25 07:26:00,20.1,8.5,30.12,South,180,3.7,-999.0,60,-99.99,,,0.00,Acu-Link.com,2013-11-25 12:26:00,
2013-11-25 07:41:00,20.8,9.1,30.12,SW,225,5.8,-999.0,60,-99.99,,,0.00,Acu-Link.com,2013-11-25 12:41:00,
2013-11-25 07:56:00,21.0,9.7,30.11,SSW,202,5.8,-999.0,61,-99.99,,,0.00,Acu-Link.com,2013-11-25 12:56:00,
2013-11-25 08:11:00,21.7,10.4,30.10,SW,225,5.3,-999.0,61,-99.99,,,0.00,Acu-Link.com,2013-11-25 13:11:00,
2013-11-25 08:26:00,22.3,10.6,30.10,South,180,8.3,-999.0,60,-99.99,,,0.00,Acu-Link.com,2013-11-25 13:26:00,
2013-11-25 08:41:00,22.8,10.6,30.10,WSW,247,5.8,-999.0,59,-99.99,,,0.00,Acu-Link.com,2013-11-25 13:41:00,
2013-11-25 08:57:00,23.2,11.0,30.10,SSW,202,13.0,-999.0,59,-99.99,,,0.00,Acu-Link.com,2013-11-25 13:57:00,
2013-11-25 09:12:00,23.9,11.3,30.09,SSW,202,3.2,-999.0,58,-99.99,,,0.00,Acu-Link.com,2013-11-25 14:12:00,
2013-11-25 09:27:00,24.4,11.0,30.08,SW,225,8.9,-999.0,56,-99.99,,,0.00,Acu-Link.com,2013-11-25 14:27:00,
2013-11-25 09:42:00,25.0,10.7,30.07,WSW,247,8.3,-999.0,54,-99.99,,,0.00,Acu-Link.com,2013-11-25 14:42:00,
2013-11-25 09:57:00,25.5,11.2,30.07,South,180,5.3,-999.0,54,-99.99,,,0.00,Acu-Link.com,2013-11-25 14:57:00,
2013-11-25 10:12:00,25.9,11.2,30.07,SW,225,8.3,-999.0,53,-99.99,,,0.00,Acu-Link.com,2013-11-25 15:12:00,
2013-11-25 10:27:00,26.4,12.0,30.06,South,180,6.8,-999.0,54,-99.99,,,0.00,Acu-Link.com,2013-11-25 15:27:00,
2013-11-25 10:42:00,26.4,12.0,30.05,South,180,7.3,-999.0,54,-99.99,,,0.00,Acu-Link.com,2013-11-25 15:42:00,
2013-11-25 10:57:00,26.4,11.6,30.05,SW,225,8.3,-999.0,53,-99.99,,,0.00,Acu-Link.com,2013-11-25 15:57:00,
2013-11-25 11:13:00,26.8,12.4,30.05,ESE,112,7.8,-999.0,54,-99.99,,,0.00,Acu-Link.com,2013-11-25 16:13:00,
2013-11-25 11:28:00,27.5,11.8,30.05,SSW,202,4.2,-999.0,51,-99.99,,,0.00,Acu-Link.com,2013-11-25 16:28:00,
2013-11-25 11:43:00,27.9,12.1,30.04,SW,225,4.2,-999.0,51,-99.99,,,0.00,Acu-Link.com,2013-11-25 16:43:00,
2013-11-25 11:58:00,27.9,13.4,30.04,SSW,202,11.9,-999.0,54,-99.99,,,0.00,Acu-Link.com,2013-11-25 16:58:00,
2013-11-25 12:13:00,28.8,13.9,30.02,SW,225,4.7,-999.0,53,-99.99,,,0.00,Acu-Link.com,2013-11-25 17:13:00,
2013-11-25 12:28:00,30.6,13.3,30.00,West,270,10.9,-999.0,48,-99.99,,,0.00,Acu-Link.com,2013-11-25 17:28:00,
2013-11-25 12:43:00,30.7,13.4,29.99,SSE,157,8.3,-999.0,48,-99.99,,,0.00,Acu-Link.com,2013-11-25 17:43:00,
2013-11-25 12:58:00,31.6,13.7,29.97,SSW,202,4.7,-999.0,47,-99.99,,,0.00,Acu-Link.com,2013-11-25 17:58:00,
2013-11-25 13:13:00,31.6,13.7,29.96,SSE,157,6.3,-999.0,47,-99.99,,,0.00,Acu-Link.com,2013-11-25 18:13:00,
2013-11-25 13:29:00,31.8,13.4,29.96,ESE,112,10.4,-999.0,46,-99.99,,,0.00,Acu-Link.com,2013-11-25 18:29:00,
2013-11-25 13:44:00,31.5,13.1,29.96,SSE,157,10.9,-999.0,46,-99.99,,,0.00,Acu-Link.com,2013-11-25 18:44:00,
2013-11-25 13:59:00,32.7,13.7,29.95,SSW,202,8.9,-999.0,45,-99.99,,,0.00,Acu-Link.com,2013-11-25 18:59:00,
2013-11-25 14:14:00,32.5,13.0,29.94,SSW,202,5.8,-999.0,44,-99.99,,,0.00,Acu-Link.com,2013-11-25 19:14:00,
2013-11-25 14:29:00,32.2,12.2,29.92,SW,225,6.8,-999.0,43,-99.99,,,0.00,Acu-Link.com,2013-11-25 19:29:00,
2013-11-25 14:44:00,32.0,13.1,29.93,WSW,247,5.3,-999.0,45,-99.99,,,0.00,Acu-Link.com,2013-11-25 19:44:00,
2013-11-25 14:59:00,32.0,12.6,29.93,West,270,3.7,-999.0,44,-99.99,,,0.00,Acu-Link.com,2013-11-25 19:59:00,
2013-11-25 15:14:00,31.8,13.4,29.93,SSE,157,5.8,-999.0,46,-99.99,,,0.00,Acu-Link.com,2013-11-25 20:14:00,
2013-11-25 15:29:00,31.5,15.0,29.94,SSW,202,10.9,-999.0,50,-99.99,,,0.00,Acu-Link.com,2013-11-25 20:29:00,
2013-11-25 15:45:00,30.9,18.3,29.93,South,180,7.8,-999.0,59,-99.99,,,0.00,Acu-Link.com,2013-11-25 20:45:00,
2013-11-25 16:00:00,29.8,20.2,29.94,South,180,6.8,-999.0,67,-99.99,,,0.00,Acu-Link.com,2013-11-25 21:00:00,
2013-11-25 16:15:00,29.7,19.8,29.94,SW,225,4.7,-999.0,66,-99.99,,,0.00,Acu-Link.com,2013-11-25 21:15:00,
2013-11-25 16:30:00,29.7,21.1,29.95,SW,225,4.7,-999.0,70,-99.99,,,0.00,Acu-Link.com,2013-11-25 21:30:00,
2013-11-25 16:45:00,29.7,20.8,29.95,SW,225,4.7,-999.0,69,-99.99,,,0.00,Acu-Link.com,2013-11-25 21:45:00,
2013-11-25 17:00:00,29.7,20.1,29.95,SSW,202,4.2,-999.0,67,-99.99,,,0.00,Acu-Link.com,2013-11-25 22:00:00,
2013-11-25 17:15:00,30.0,20.0,29.95,ESE,112,5.8,-999.0,66,-99.99,,,0.00,Acu-Link.com,2013-11-25 22:15:00,
2013-11-25 17:30:00,30.0,21.1,29.94,WSW,247,5.8,-999.0,69,-99.99,,,0.00,Acu-Link.com,2013-11-25 22:30:00,
2013-11-25 17:46:00,29.8,20.5,29.94,SW,225,5.8,-999.0,68,-99.99,,,0.00,Acu-Link.com,2013-11-25 22:46:00,
2013-11-25 18:01:00,29.8,21.6,29.95,SW,225,5.3,-999.0,71,-99.99,,,0.00,Acu-Link.com,2013-11-25 23:01:00,
2013-11-25 18:16:00,29.5,21.6,29.96,SW,225,6.3,-999.0,72,-99.99,,,0.00,Acu-Link.com,2013-11-25 23:16:00,
2013-11-25 18:31:00,29.1,21.5,29.96,WSW,247,6.3,-999.0,73,-99.99,,,0.00,Acu-Link.com,2013-11-25 23:31:00,
2013-11-25 18:46:00,29.1,21.9,29.96,South,180,4.7,-999.0,74,-99.99,,,0.00,Acu-Link.com,2013-11-25 23:46:00,
2013-11-25 19:01:00,29.1,22.2,29.96,WSW,247,9.4,-999.0,75,-99.99,,,0.00,Acu-Link.com,2013-11-26 00:01:00,
2013-11-25 19:16:00,29.1,22.2,29.96,SW,225,6.3,-999.0,75,-99.99,,,0.00,Acu-Link.com,2013-11-26 00:16:00,
2013-11-25 19:31:00,29.1,22.2,29.97,West,270,8.3,-999.0,75,-99.99,,,0.00,Acu-Link.com,2013-11-26 00:31:00,
2013-11-25 19:46:00,29.3,22.4,29.97,WSW,247,4.7,-999.0,75,-99.99,,,0.00,Acu-Link.com,2013-11-26 00:46:00,
2013-11-25 20:02:00,29.5,22.6,29.97,SSW,202,6.8,-999.0,75,-99.99,,,0.00,Acu-Link.com,2013-11-26 01:02:00,
2013-11-25 20:17:00,29.5,23.2,29.97,SW,225,5.8,-999.0,77,-99.99,,,0.00,Acu-Link.com,2013-11-26 01:17:00,
2013-11-25 20:32:00,29.5,23.5,29.97,SSW,202,4.2,-999.0,78,-99.99,,,0.00,Acu-Link.com,2013-11-26 01:32:00,
2013-11-25 20:47:00,29.5,23.8,29.97,WSW,247,6.8,-999.0,79,-99.99,,,0.00,Acu-Link.com,2013-11-26 01:47:00,
2013-11-25 21:02:00,29.5,24.4,29.97,SW,225,6.8,-999.0,81,-99.99,,,0.00,Acu-Link.com,2013-11-26 02:02:00,
2013-11-25 21:17:00,29.1,24.6,29.97,SE,135,3.7,-999.0,83,-99.99,,,0.00,Acu-Link.com,2013-11-26 02:17:00,
2013-11-25 21:32:00,29.1,24.9,29.97,SSW,202,6.3,-999.0,84,-99.99,,,0.00,Acu-Link.com,2013-11-26 02:32:00,
2013-11-25 21:47:00,28.9,25.5,29.97,SW,225,4.7,-999.0,87,-99.99,,,0.00,Acu-Link.com,2013-11-26 02:47:00,
2013-11-25 22:02:00,28.8,26.0,29.98,West,270,4.2,-999.0,89,-99.99,,,0.00,Acu-Link.com,2013-11-26 03:02:00,
2013-11-25 22:18:00,28.8,26.5,29.97,SSW,202,4.7,-999.0,91,-99.99,,,0.00,Acu-Link.com,2013-11-26 03:18:00,
2013-11-25 22:33:00,28.8,26.8,29.98,SW,225,4.2,-999.0,92,-99.99,,,0.00,Acu-Link.com,2013-11-26 03:33:00,
2013-11-25 22:48:00,28.6,26.6,29.98,SE,135,4.7,-999.0,92,-99.99,,,0.00,Acu-Link.com,2013-11-26 03:48:00,
2013-11-25 23:03:00,28.6,26.6,29.97,SSW,202,3.7,-999.0,92,-99.99,,,0.00,Acu-Link.com,2013-11-26 04:03:00,
2013-11-25 23:18:00,28.6,26.3,29.97,SSW,202,5.3,-999.0,91,-99.99,,,0.00,Acu-Link.com,2013-11-26 04:18:00,
2013-11-25 23:33:00,28.6,26.3,29.98,SW,225,4.7,-999.0,91,-99.99,,,0.00,Acu-Link.com,2013-11-26 04:33:00,
2013-11-25 23:48:00,28.6,26.3,29.97,SW,225,3.7,-999.0,91,-99.99,,,0.00,Acu-Link.com,2013-11-26 04:48:00,